Location: Celina Division
(33.3022°N, 96.7580°W)
Time: 11:37:01
(UTC+00:00)

NOAA 18 - Pass Details

Date: 02 April 2023
Orbit: 838 x 860 km, 98.9° (Epoch: 08 June)

Event Time Altitude Azimuth Distance (km) Brightness Sun altitude
Exits shadow 03:54:58 16° 10° (N) 2,118 7.5 -37.0°
Drops below altitude 10° 03:56:04 10° 4° (N) 2,501 8.0 -37.2°
Sets 03:58:36 0° 357° (N) 3,442 8.9 -37.6°
